Weather History for Gastonia, NC

Change the Weather History Date:

Saturday, May 25, 2013

  Actual Average (KCLT) Record (KCLT)
Temperature  
Mean Temperature 58 °F 70 °F  
Max Temperature 75 °F 81 °F 95 °F (1953)
Min Temperature 42 °F 59 °F 41 °F (2013)
Degree Days  
Heating Degree Days 6 1  
Month to date heating degree days 49  
Since 1 July heating degree days 3381  
Cooling Degree Days 0 6  
Month to date cooling degree days 87  
Year to date cooling degree days 124  
Growing Degree Days 8 (Base 50)    
Moisture  
Dew Point 43 °F    
Average Humidity 58    
Maximum Humidity 92    
Minimum Humidity 29    
Precipitation  
Precipitation 0.00 in 0.11 in 2.24 in (1939)
Month to date precipitation 2.49  
Year to date precipitation 16.27  
Snow  
Snow 0.00 in 0.00 in 0.00 in ()
Month to date snowfall 0.0  
Since 1 July snowfall 4.3  
Snow Depth -    
Sea Level Pressure  
Sea Level Pressure 30.23 in    
Wind  
Wind Speed 2 mph (NE)    
Max Wind Speed 9 mph    
Max Gust Speed -    
Visibility 10 miles    
Events      
T = Trace of Precipitation, MM = Missing Value Source: NWS Daily Summary

Daily Weather History Graph

Daily Weather History Graph

Search for Another Location

Airport:

Trip Planner

Search our weather history database for the weather conditions in past years. The results will help you decide how hot, cold, wet, or windy it might be!

Date:

Astronomy

May. 25, 2013 Rise Set
Actual Time 6:14 AM EDT 8:29 PM EDT
Civil Twilight 5:45 AM EDT 8:58 PM EDT
Nautical Twilight 5:09 AM EDT 9:33 PM EDT
Astronomical Twilight 4:31 AM EDT 10:12 PM EDT
Moon 9:16 PM EDT 6:38 AM EDT
Length of Visible Light 15h 13m
Length of Day
14h 15m
Full, 100% of the Moon is Illuminated
May 25
Full
May 31
Last Quarter
Jun 8
New
Jun 16
First Quarter
Jun 23
Full

Hourly Weather History & Observations

Time (EDT) Temp. Dew Point Humidity Pressure Visibility Wind Dir Wind Speed Gust Speed Precip Events Conditions
12:54 AM 51.1 °F 41.0 °F 68% 30.22 in 10.0 mi Calm Calm - N/A   Clear
1:54 AM 46.9 °F 41.0 °F 80% 30.22 in 10.0 mi Calm Calm - N/A   Clear
2:54 AM 46.0 °F 42.1 °F 86% 30.22 in 10.0 mi Calm Calm - N/A   Clear
3:54 AM 44.1 °F 41.0 °F 89% 30.22 in 10.0 mi Calm Calm - N/A   Clear
4:54 AM 44.1 °F 41.0 °F 89% 30.23 in 10.0 mi Calm Calm - N/A   Clear
5:54 AM 42.1 °F 39.9 °F 92% 30.25 in 10.0 mi Calm Calm - N/A   Clear
6:54 AM 45.0 °F 42.1 °F 90% 30.27 in 10.0 mi Calm Calm - N/A   Clear
7:54 AM 52.0 °F 46.9 °F 83% 30.30 in 10.0 mi Calm Calm - N/A   Clear
8:54 AM 60.1 °F 42.1 °F 51% 30.31 in 10.0 mi ENE 5.8 mph - N/A   Clear
9:54 AM 63.0 °F 39.9 °F 43% 30.31 in 10.0 mi NE 3.5 mph - N/A   Clear
10:54 AM 64.9 °F 41.0 °F 42% 30.30 in 10.0 mi Calm Calm - N/A   Clear
11:54 AM 68.0 °F 42.1 °F 39% 30.29 in 10.0 mi SW 9.2 mph - N/A   Clear
12:54 PM 71.1 °F 42.1 °F 35% 30.27 in 10.0 mi Variable 5.8 mph - N/A   Clear
1:54 PM 72.0 °F 37.9 °F 29% 30.24 in 10.0 mi Variable 6.9 mph - N/A   Clear
2:54 PM 73.0 °F 41.0 °F 31% 30.21 in 10.0 mi Variable 6.9 mph - N/A   Clear
3:54 PM 73.9 °F 44.1 °F 34% 30.19 in 10.0 mi Variable 4.6 mph - N/A   Clear
4:54 PM 75.9 °F 44.1 °F 32% 30.18 in 10.0 mi Variable 4.6 mph - N/A   Clear
5:54 PM 75.0 °F 44.1 °F 33% 30.17 in 10.0 mi Variable 3.5 mph - N/A   Clear
6:54 PM 73.9 °F 46.9 °F 38% 30.16 in 10.0 mi Variable 3.5 mph - N/A   Clear
7:54 PM 70.0 °F 46.9 °F 44% 30.17 in 10.0 mi Calm Calm - N/A   Clear
8:54 PM 62.1 °F 50.0 °F 65% 30.17 in 10.0 mi Calm Calm - N/A   Clear
9:54 PM 60.1 °F 50.0 °F 69% 30.18 in 10.0 mi Calm Calm - N/A   Clear
10:54 PM 60.1 °F 46.9 °F 62% 30.19 in 10.0 mi Calm Calm - N/A   Clear
11:54 PM 55.0 °F 48.9 °F 80% 30.18 in 10.0 mi Calm Calm - N/A   Clear